OPTUS 10 (40146 NORAD) Tracking and Keplerian Element Data

This shows tracking and keplerian element data for the satellite.

Feedback or suggestion? Click here.




ElementValue
Catalog40146
NameOPTUS 10
Epoch Orbit1725
Epoch Day145.76785347
Epoch Year2019
RAAN222.9984
Inclination0.0185
Eccentricity0.0002877
Argument of Perigee225.9008
Mean Anonmoly226.5904
Mean Motion1.00271536
Decay Rate-1.51E-06
L11 40146U 14054A 19145.76785347 -.00000151 00000-0 00000+0 0 9993
L22 40146 0.0185 222.9984 0002877 225.9008 226.5904 1.00271536 17255

Live tracking and technical data element details for OPTUS 10 (NORAD 40146). OPTUS 10 can be tracked NOW for your location showing map with azimuth and elevation plus other details from your city location.

Track the satellite on the map from your city or location and see movement details for azimuth, elevation, latitude, longitude, range, height, and movement on the map or in text.







IsCatalogInMostPopularTable: catalog: 40146, numindb: 235
Update: records affected: 1



GetName: 40146 OPTUS 10

Hit Count: updated at: Mon, 27 May 2019 02:56:37 GMT